Showing default

O3B FM17, 44114

Orbit data source: Space-Track

O3B FM17, 44114 is a payload satellite owned by O3B SES (JE) that was launched on Thu, 04 Apr 2019 UTC via a SOYUZ-ST-B launch vehicle from the French Guiana (FRGUI). Payloads include a variety of satellites, spacecraft, and rockets equipped with specific instruments for various scientific and technological missions. These include communications satellites like Starlink; space stations such as the ISS; scientific satellites like the Hubble; Earth observation satellites from companies like Planet Labs, Umbra, and HawkEye 360; GPS; miniature CubeSats for education and research; and military/defense satellites.

Loading next visibility...
O3B FM17 details
Identifier
44114, 2019-020C
Orbit
Active
Last TLE update18 hours ago
Origin
Flag of JEO3B SES (JE / O3B)
ManufacturerThales Alenia
MissionOperational Commercial Communications
Bus & MotorPRISMA?, LS-400 AOCS?
Mass700 kg wet, ~500 kg dry
Launch date (UTC)
2019-04-04 (6 years ago)
Launch vehicle
SOYUZ-ST-B
Launch site
French Guiana (FRGUI)
Object type
Payload
Rocket body
Debris
Shape & HBRTrap Box + 2 Pan, 12 m
Radar Cross Section21.980 m², Large (>1 m²)

Expand to show TLE details & history

TLE from 18 hours ago
0 O3B FM17
1 44114U 19020C   24347.62089062 -.00000013  00000-0  00000+0 0  9993
2 44114   0.0466  21.6080 0003051 246.1584  92.2013  5.00114894104068
Epoch: 2024-12-12T14:54Z
Definitive object data (Epoch: 2024-12-12T14:54:04.949Z)
Latitude-0.01498°
Longitude54.68071°
Altitude8,064.557 km
Speed5.254 km/s
True Right ascension23h 59m 59s
True Declination0° 00' 54"
Sunlit
Object was in daylight at TLE epoch
Visualization TLE readout
Latitude-0.05045°
Longitude-17.08771°
Altitude8,060.246 km
Speed5.256 km/s
Apparent Right ascension19h 19m 13s
Apparent Declination-11° 56' 14"
Sunlit
Object is in daylight
Visualization observer readout
Local Sidereal Time07:37:48
Azimuth9.628° NNE
Elevation-61.722°
Doppler factor1
Orbital elements
Apogee altitude8,073.368 km
Perigee altitude8,064.553 km
Semi-major axis14,447.097 km
Eccentricity0.0003051
Inclination0.0466°
RAAN21.608°
Arg. of periapsis246.1584°
True anomaly92.23624°
Mean anomaly92.2013°
Eccentric anomaly92.21877°
Mean motion1.24989 °/min
BSTARUnknown
Orbital period288.03 mins
Loading maneuver chart data...
Loading historical data...
Loading historical data...
Loading historical data...
Loading historical data...
Loading historical data...
Loading historical data...
Loading historical data...
Other satellites on launch #20 in the year 2019 (2019-04-04 UTC)

O3B FM17 Visibility forecast

Observer location: undefined°, undefined

Span
Click to sort rows by Start time (UTC) header in descending order
Start Az.
Max El. time (UTC)
Max El. Az.
Max El.
End time (UTC)
End Az.
79 mins2024-12-13 11:35:05.293Z231.93° WSW2024-12-13 12:14:05.293Z180.414° SSW24.4°2024-12-13 12:54:05.293Z127.63° SE
78 mins2024-12-13 17:36:05.293Z230.907° WSW2024-12-13 18:14:05.293Z180.379° SSW24.324°2024-12-13 18:54:05.293Z127.611° SE
78 mins2024-12-13 23:36:05.293Z230.827° WSW2024-12-14 00:14:05.293Z180.311° SSW24.34°2024-12-14 00:54:05.293Z127.555° SE
78 mins2024-12-14 05:36:05.293Z230.853° WSW2024-12-14 06:14:05.293Z180.349° SSW24.416°2024-12-14 06:54:05.293Z127.575° SE
|